Regional Weather Roundup
Issued by NWS

Home | Current Version | Previous Version | Text Only | Print | Product List | Glossary On
Versions: 1 2 3 4 5 6 7 8 9 10 11 12 13 14 15 16 17 18 19 20 21 22 23 24 25 26 27
000
ASUS45 KREV 280210
RWRNV
NEVADA REGIONAL WEATHER ROUNDUP
NATIONAL WEATHER SERVICE RENO NV
700 PM PDT FRI MAY 27 2016

NOTE: "FAIR" INDICATES FEW OR NO CLOUDS BELOW 12,000 FEET WITH NO
SIGNIFICANT WEATHER AND/OR OBSTRUCTIONS TO VISIBILITY.

NVZ001-003-004-280300-
WESTERN NEVADA

CITY           SKY/WX    TMP DP  RH WIND       PRES   REMARKS
RENO           MOSUNNY   73  35  25 NW15      29.90S
CARSON CITY    FAIR      68  36  30 W13G20    29.95R
MINDEN         FAIR      68  37  32 NW13      29.95S
FALLON         MOSUNNY   76  30  18 N12       29.86S
LOVELOCK       SUNNY     74  23  15 NW16G22   29.88S
HAWTHORNE      MOSUNNY   73  34  23 W5        29.89S
$$

NVZ002-CAZ072-073-280300-
NORTHERN AND CENTRAL SIERRA

CITY           SKY/WX    TMP DP  RH WIND       PRES   REMARKS
S. LAKE TAHOE  SUNNY     59  34  39 S7        30.03S
TRUCKEE        SUNNY     59  36  41 W10G17    30.03R
SQUAW VLY 8000 NOT AVBL
BLUE CANYON    SUNNY     61  34  36 W7        30.03S
MAMMOTH LAKES  FAIR      61  31  32 SW12G21   30.04R
BRIDGEPORT     FAIR      60  37  42 SW7       30.01S
$$

NVZ030-031-036-280300-
NORTHERN NEVADA

CITY           SKY/WX    TMP DP  RH WIND       PRES   REMARKS
ELKO           CLOUDY    66  29  24 W7        29.92R
WINNEMUCCA     PTSUNNY   68  26  20 N16       29.92S
WENDOVER       MOCLDY    57  45  62 N17G26    29.91R THUNDER
$$

NVZ035-037-280300-
CENTRAL NEVADA

CITY           SKY/WX    TMP DP  RH WIND       PRES   REMARKS
ELY            PTCLDY    63  26  24 NW8       29.95R
EUREKA           N/A     65  29  25 NW16G23   29.94S
$$

NVZ013-014-280300-
SOUTH CENTRAL NEVADA

CITY           SKY/WX    TMP DP  RH WIND       PRES   REMARKS
TONOPAH        SUNNY     72  22  15 W8        29.93S
$$

NVZ017-020-022-280300-
SOUTHERN NEVADA

CITY           SKY/WX    TMP DP  RH WIND       PRES   REMARKS
LAS VEGAS      PTCLDY    88  25  10 SW5       29.70S
N. LAS VEGAS   CLEAR     87  30  13 CALM      29.73S
NELLIS AFB     CLEAR     87  29  12 S9        29.71S
HENDERSON      CLEAR     86  29  12 S9        29.77S
MERCURY        CLEAR     81  23  11 SW12      29.80S
$$




USA.gov is the U.S. government's official web portal to all federal, state and local government web resources and services.